SCP
1 1 1 1 1 0 0 0 0 0 0 0 0 0 0 1 1 1 1 1 1 1 1 1 1 1 1 1 1 1 1 1 1 1 1 1 1 1 1 1 1 1 1
1 1 1 1 1 0 0 0 0 0 0 0 0 0 0 1 1 1 1 1 1 1 1 1 1 1 1 1 1 1 1 1 1 1 1 1 1 1 1 1 1 1 1
1 1 1 1 1 0 0 0 0 0 0 0 0 0 0 1 1 1 1 1 1 1 1 1 1 1 1 1 1 1 1 1 1 1 1 1 1 1 1 1 1 1 1
1 1 1 0 0 0 0 0 0 0 0 0 0 0 0 1 1 1 1 1 1 1 1 1 1 1 1 1 1 1 1 1 1 1 1 1 1 1 1 1 1 1 1
0 0 0 0 0 0 0 0 0 0 0 0 0 0 0 0 1 1 0 0 0 0 0 0 1 1 1 1 1 1 1 1 1 1 1 1 1 1 1 1 1 1 1
0 0 0 0 0 0 0 0 0 0 0 0 0 0 0 0 0 0 0 0 0 0 0 0 0 1 1 1 1 1 1 2 2 2 1 1 1 1 1 1 1 1 1
0 0 0 0 0 0 0 0 0 0 0 0 0 0 0 0 0 0 0 0 0 0 0 0 0 0 0 0 1 1 1 1 2 2 2 2 1 1 1 1 1 1 1
0 0 0 0 0 0 0 0 0 0 0 0 0 0 0 0 0 0 0 0 0 0 0 0 0 0 0 0 0 1 1 1 1 1 2 2 2 1 1 1 1 1 1
0 0 0 0 0 0 0 0 0 0 0 0 0 0 0 0 0 0 0 0 0 0 0 0 0 0 0 1 1 0 1 1 1 1 1 1 1 1 1 1 1 1 1
1 0 0 0 0 0 0 0 0 0 0 0 0 0 0 0 0 0 0 0 0 0 0 0 0 0 1 1 1 0 0 1 1 1 1 1 1 1 1 1 1 1 1
1 1 1 0 0 0 0 0 0 0 0 0 0 0 0 0 0 1 0 0 0 0 0 0 0 0 1 1 1 0 0 0 1 1 1 1 1 1 1 1 1 1 1
1 1 1 1 1 0 0 0 0 0 0 0 0 1 1 1 1 1 1 1 0 0 0 0 0 0 1 1 0 0 0 0 0 0 1 1 1 1 1 1 1 1 1
0 1 1 1 1 1 1 1 1 1 1 1 1 1 1 1 1 1 1 1 1 1 0 0 0 0 0 0 0 0 0 0 0 0 0 0 0 1 1 1 1 1 1
0 1 1 1 1 1 1 1 1 1 1 1 1 1 1 1 1 1 1 1 1 1 1 1 0 0 0 0 0 0 0 0 0 0 0 0 0 0 0 1 1 1 1
0 1 1 1 1 1 1 1 1 1 1 1 1 1 1 1 1 1 1 1 2 2 2 1 1 0 0 0 0 0 0 0 0 0 0 0 0 0 0 0 0 0 1
1 1 1 1 2 2 2 2 1 1 1 1 1 1 1 1 1 1 1 1 2 2 2 1 1 0 0 0 0 0 0 0 0 0 0 0 0 0 0 0 0 0 0
1 1 1 1 2 2 2 2 2 1 1 1 1 1 1 1 1 1 1 1 1 1 1 1 1 0 0 0 0 0 0 0 0 0 0 0 0 0 0 0 0 0 0
1 1 1 2 2 2 2 2 2 2 2 1 1 1 1 1 1 1 1 1 1 1 1 1 1 0 0 0 0 0 0 1 0 0 0 0 0 0 0 0 0 0 0
2 2 1 2 2 2 2 2 2 2 2 2 1 1 1 1 1 0 0 1 1 1 1 1 1 0 0 0 0 0 0 1 0 0 0 0 0 0 0 0 0 0 0
2 2 1 1 2 2 2 2 2 2 2 2 2 2 1 1 1 0 0 1 1 1 1 1 0 0 0 0 0 0 0 0 0 0 0 0 0 0 0 0 0 0 0
2 1 1 1 1 1 2 2 2 2 2 2 2 2 1 1 1 0 0 1 1 1 1 1 1 0 0 0 0 0 0 0 0 0 0 0 0 0 0 0 0 0 0
1 1 1 1 1 1 1 1 1 2 2 2 2 2 1 1 1 0 0 0 1 1 1 1 1 1 1 1 1 1 1 0 0 0 0 0 0 0 0 0 0 0 0
1 1 1 1 1 1 1 1 1 2 2 2 3 2 2 1 1 1 1 0 0 0 1 1 1 1 1 1 1 1 1 1 1 0 0 0 0 0 0 0 0 0 0
2 2 2 2 1 1 1 1 1 1 1 2 2 2 2 2 1 1 1 1 1 1 1 1 1 1 1 1 1 1 1 1 1 0 0 1 0 0 0 0 0 0 0
3 3 2 2 2 2 1 1 1 1 1 1 2 2 2 2 1 1 1 2 2 1 1 1 1 1 1 0 1 1 1 1 1 0 1 1 1 0 0 0 0 0 0
3 3 3 3 3 2 2 1 0 1 1 1 2 2 1 1 1 1 2 2 2 2 2 1 1 0 0 0 0 1 1 1 1 1 1 1 1 1 0 0 0 0 0
Wind_Speed
1 1 0 1 0 1 1 1 1 1 1 1 1 2 2 2 2 2 2 6 7 7 8 9 9 8 8 8 8 9 9 10 9 9 8 8 7 8 7 8 8 8 8
1 1 1 0 0 0 1 1 1 0 0 1 1 1 2 1 1 2 2 3 5 7 8 8 9 9 8 9 9 9 9 10 9 9 8 8 8 8 8 8 7 7 8
2 1 1 0 0 1 1 1 1 1 1 1 1 1 1 1 1 1 2 1 2 5 7 7 8 8 8 9 9 10 10 9 9 9 9 9 9 8 8 8 8 8 8
2 2 1 1 1 1 1 1 1 1 1 1 1 0 0 0 1 1 1 1 1 2 4 6 7 7 7 8 9 9 9 9 8 9 9 9 9 8 8 8 8 7 7
2 2 1 1 1 1 1 1 1 1 1 0 0 0 0 0 1 1 1 2 2 2 2 3 4 5 7 8 8 7 7 7 8 9 10 9 9 9 9 9 8 8 7
2 2 2 1 2 2 1 1 1 1 1 1 0 1 1 0 0 1 2 1 1 2 2 2 1 2 4 5 6 6 6 7 7 8 9 9 9 9 9 9 8 8 8
2 2 2 2 2 2 2 2 2 1 1 1 1 1 1 1 0 1 1 0 0 1 0 1 1 1 1 3 3 5 6 6 7 8 8 8 8 8 8 8 9 9 9
2 2 2 2 2 2 2 2 2 1 0 1 2 1 1 2 1 1 0 0 0 0 0 1 1 1 1 1 2 3 4 5 6 7 8 7 8 8 7 8 8 9 9
2 2 2 2 2 2 2 2 2 3 1 0 1 2 2 1 1 1 1 0 0 0 1 1 1 1 2 1 1 2 3 4 5 6 6 7 7 7 7 8 8 7 8
1 1 2 2 2 1 2 2 2 2 2 1 1 1 1 2 1 1 1 1 1 1 1 1 1 1 1 1 1 2 2 3 4 4 5 5 6 7 8 8 8 8 7
0 0 1 2 2 1 2 1 2 2 2 2 2 1 1 1 1 1 1 1 1 1 1 1 1 1 1 1 1 1 2 2 3 3 3 4 4 6 7 9 9 9 8
1 1 1 1 1 1 1 2 2 2 2 2 2 2 2 2 2 2 2 1 1 1 1 1 1 1 1 1 2 1 1 1 2 2 3 3 4 4 4 6 8 9 8
0 0 0 1 1 1 1 1 1 1 2 2 2 2 2 2 2 2 2 2 1 1 1 1 1 1 0 0 1 1 1 0 0 1 1 1 1 1 1 2 2 4 6
1 1 1 1 1 1 1 1 1 1 1 2 2 2 2 2 2 3 3 3 1 1 1 2 0 0 1 0 0 0 0 1 1 0 0 0 1 1 1 1 2 1 2
1 1 1 1 1 1 1 1 1 1 1 1 1 1 1 1 2 2 2 3 3 2 2 2 1 0 0 0 0 0 0 2 2 2 2 1 2 2 2 2 3 3 3
1 1 1 1 1 1 1 1 1 0 1 0 1 1 1 1 1 1 2 2 2 3 2 1 1 1 0 0 2 1 1 2 2 2 2 2 2 3 3 3 4 4 4
2 2 1 1 1 1 1 1 1 1 1 0 0 1 1 1 1 1 1 2 2 2 2 1 0 0 0 0 1 1 1 1 1 3 3 3 2 3 3 3 3 4 5
2 2 2 2 1 1 1 1 1 1 1 1 1 1 1 1 1 1 1 1 2 2 3 2 1 0 0 0 1 1 1 1 1 2 2 2 3 3 3 3 4 4 4
2 2 2 2 2 1 1 1 2 1 1 1 1 1 1 1 1 1 1 1 1 2 2 2 1 0 1 1 2 1 2 1 1 2 2 2 3 3 3 4 4 5 4
2 2 2 2 2 2 2 2 2 2 1 1 1 1 2 2 2 2 2 2 2 2 2 2 1 1 1 1 1 1 1 1 1 1 2 2 3 3 4 4 4 5 4
2 2 2 1 1 2 2 2 2 2 2 2 1 2 2 2 3 3 2 3 3 2 2 2 1 1 1 1 1 1 1 1 0 0 1 1 1 1 1 2 3 4 4
2 2 2 2 2 2 2 3 3 2 2 2 2 2 2 2 2 1 2 4 4 4 3 3 2 2 2 2 2 2 2 1 1 1 1 0 1 1 1 1 2 4 4
2 2 2 2 2 3 3 3 3 2 2 2 2 2 2 2 1 1 1 1 2 3 5 4 4 4 4 4 4 3 3 2 2 2 2 1 0 1 1 1 3 4 4
2 2 2 2 2 3 3 3 3 3 2 3 3 3 3 2 2 2 1 1 1 2 3 3 4 4 4 4 5 4 3 2 1 1 2 1 1 1 1 1 2 4 4
2 3 2 2 3 4 3 3 3 2 2 3 3 3 3 3 3 3 3 2 2 2 2 2 3 3 3 4 5 3 3 3 2 1 2 2 2 1 1 1 1 3 4
3 2 2 3 3 4 4 4 4 2 3 3 3 3 4 4 4 5 4 4 3 3 2 1 1 1 2 3 5 5 5 4 2 2 3 3 2 2 1 1 1 1 2
Wind_Direction
139 125 101 92 96 89 91 91 94 85 69 67 87 118 136 149 164 179 189 200 203 206 211 215 215 216 214 212 214 214 213 210 206 209 212 211 209 209 207 213 213 211 210
158 158 148 130 147 125 121 125 125 115 79 81 74 105 134 147 180 191 198 210 217 218 219 224 227 225 223 221 221 220 220 220 214 209 210 211 214 215 213 216 218 216 216
157 161 162 163 168 120 104 93 81 78 69 80 74 71 104 161 188 194 203 209 228 229 229 230 233 233 230 230 228 225 225 226 220 210 211 215 219 218 217 218 221 221 220
156 147 144 161 151 114 102 99 78 69 53 61 64 22 33 176 208 204 207 210 225 240 240 234 233 237 239 238 235 232 227 223 218 213 212 215 215 212 212 214 216 216 216
158 141 145 151 129 112 110 135 100 115 109 91 93 14 3 277 248 230 226 222 218 223 237 247 236 235 243 246 242 239 233 225 222 213 214 216 216 216 216 217 216 215 215
157 146 145 143 135 128 133 137 136 124 147 164 72 16 1 320 273 245 243 242 232 229 221 226 226 250 256 260 250 241 231 228 226 222 223 219 219 219 218 218 217 217 218
150 148 148 139 149 159 173 167 145 133 134 127 93 18 3 11 322 238 247 236 256 260 251 241 252 260 275 280 278 259 242 234 230 232 233 228 225 221 219 219 221 220 218
155 165 157 159 162 157 149 149 140 137 150 132 134 108 1 353 348 355 63 140 192 135 285 282 270 251 248 262 293 281 265 253 242 235 232 231 233 231 225 225 222 222 221
161 153 156 164 168 164 171 176 167 164 171 176 154 154 160 234 313 345 360 177 178 187 248 274 266 255 235 233 267 276 264 262 253 244 235 226 227 231 228 226 223 222 222
155 162 162 167 170 164 174 189 174 171 159 185 186 185 186 170 170 312 343 340 295 272 262 263 274 271 256 238 254 259 265 271 264 257 250 238 230 230 230 228 225 224 224
44 157 159 159 168 174 186 185 168 175 173 180 183 170 165 150 165 184 266 313 337 291 275 258 259 277 274 254 257 269 277 274 280 269 259 249 239 234 232 230 229 230 230
28 28 130 143 165 175 188 193 188 182 184 181 181 178 177 177 188 184 207 243 276 298 297 292 281 280 277 266 271 290 276 279 278 275 257 250 249 244 240 236 236 234 231
93 270 142 146 151 175 186 170 169 193 191 189 196 201 203 211 190 174 176 196 224 282 316 315 273 271 271 271 292 322 318 337 320 282 268 249 238 213 198 204 229 228 226
203 186 154 147 151 162 173 152 155 197 192 205 209 201 207 221 205 192 183 172 192 252 259 261 296 259 260 221 313 223 350 67 80 65 66 94 120 119 140 162 154 147 162
183 159 150 140 141 150 158 150 168 209 175 193 207 202 212 230 210 207 199 185 183 214 247 239 245 284 256 143 58 105 127 68 78 75 69 82 102 110 114 124 123 115 111
159 134 134 136 127 148 151 138 160 194 155 222 212 189 223 246 222 200 196 199 197 196 216 221 228 274 312 76 87 94 76 64 67 77 85 85 94 106 109 113 116 116 114
157 153 155 153 159 189 185 164 197 187 183 260 267 197 242 241 226 221 199 194 195 187 204 227 205 280 185 98 71 69 74 75 57 76 92 94 97 105 110 111 111 112 113
170 170 166 170 185 187 185 180 214 219 204 224 259 250 272 262 239 218 193 188 189 189 184 195 191 166 128 126 79 62 50 63 55 69 92 104 108 111 116 117 115 112 112
169 173 170 181 189 184 187 195 199 203 205 221 230 235 256 232 232 214 197 196 189 169 167 166 168 129 80 75 74 61 55 41 44 54 82 95 100 107 118 120 117 115 112
174 181 184 192 193 193 194 197 194 201 215 237 239 238 241 226 221 209 201 197 172 154 146 146 143 124 110 83 105 107 65 42 28 34 55 71 80 84 96 110 118 118 117
184 182 180 195 197 199 207 196 197 202 215 241 258 259 256 247 230 211 200 188 172 165 159 159 157 153 164 159 184 187 178 141 61 25 68 51 78 83 94 120 132 131 129
179 169 189 203 213 230 217 198 189 199 211 221 245 262 273 269 268 235 202 189 181 179 180 178 186 199 206 204 192 184 174 174 201 210 171 72 134 160 189 186 161 155 152
187 191 209 213 225 241 227 210 202 193 210 224 232 241 258 266 255 254 250 192 198 200 191 186 191 210 208 202 191 193 197 197 205 176 171 188 172 225 238 198 175 176 173
192 210 220 221 233 255 242 226 215 206 223 236 234 228 231 244 237 213 192 177 212 233 222 209 210 219 221 207 197 197 191 178 140 157 184 194 199 217 245 249 205 193 189
209 217 216 219 237 260 250 226 194 204 232 247 246 238 232 237 237 195 179 197 228 259 254 224 225 225 221 209 189 165 164 169 201 205 191 193 188 191 215 243 220 189 186
208 214 230 236 237 247 250 230 200 207 234 252 259 255 242 235 224 199 197 202 225 245 249 269 267 244 215 201 194 197 190 190 195 211 190 186 180 173 201 216 218 194 185